Reflectivity
-20 -20 -20 -20 -20 -20 -20 -20 -20 -20 -20 -20 -20 -20 -20 -20 -20 -20 -20 -20 -20 -20 -20 -20 -20 -20 27 -1 -19 -20 -20 -20 -20 -20 -20 -20 -20 -20 -20 -20 -20 -20 -20 -20
-20 -20 -20 -20 -20 -20 -20 -20 -20 -20 -20 -20 -20 -20 -20 -20 -20 -20 -20 -20 -20 -20 -20 -20 -20 -20 -20 8 2 -20 -20 -20 -20 -20 5 -20 -20 -20 -20 -20 -20 -20 -20 -20
-20 -20 -20 -20 -20 -20 -20 -20 -20 -20 -20 -20 -20 -20 -20 -20 -20 -20 -20 -20 -20 -20 -20 -20 -20 -20 -20 -20 -20 -20 -20 -20 -20 -4 -10 -20 -20 -20 -20 -20 -20 -20 -20 -20
-20 -20 -20 -20 -20 -20 -20 -20 -20 -20 -20 -20 -20 -20 -20 -20 -20 -20 -20 -20 -20 -20 -20 -20 -20 -20 -20 -20 -20 -20 -20 -20 -19 -20 -20 -20 -20 -20 -20 -20 -20 -20 -20 -20
-20 -20 -20 -20 -20 -20 -20 -20 -20 -20 -20 -20 -20 -20 -20 -20 -20 -20 -20 -20 -20 -20 -20 -20 -20 -20 -20 -20 -20 -20 -20 -20 -12 -20 -20 -20 -20 -20 -20 -20 -20 -20 -20 -20
-20 -20 -20 -20 -20 -20 -20 -20 -20 -20 -20 -20 -20 -20 -20 -20 -20 -20 -20 -20 -20 -20 -20 -20 -20 -20 -20 -20 -20 -20 -20 -20 -20 -20 -20 -20 -20 -20 -20 -20 -20 -20 -20 -20
-20 -20 -20 -20 -20 -20 -20 -20 -20 -20 -20 -20 -20 -20 -20 -20 -20 -20 -20 -20 -20 -20 -20 -20 -20 -20 -20 -20 -20 -20 -20 -20 -20 -20 -20 -20 -20 -20 -20 -20 -20 -13 -14 -20
-20 -20 -20 -20 -20 -20 -20 -20 -20 -20 -20 -20 -20 -20 -20 -20 -20 -20 -20 -20 -20 -20 -20 -20 -20 -20 -20 -20 -20 -20 -20 -20 -20 -4 -7 -20 -20 -20 -20 -20 -20 -20 -20 -20
-20 -20 -20 -20 -20 -20 -20 -20 -20 -20 -20 -20 -20 -20 -20 -20 -20 -20 -20 -20 -20 -20 -20 -20 -20 -20 -20 -20 -20 -20 -20 -20 -20 -2 9 -18 -20 -20 -20 -20 -20 -20 -20 -20
-20 -20 -20 -20 -20 -20 -20 -20 -20 -20 -20 -20 -20 -20 -20 -20 -20 -20 -20 -20 -20 -20 -20 -20 -20 -20 -20 -20 -20 -20 -20 -20 -20 2 12 4 -20 -20 -20 -20 -20 -20 -20 -20
-20 -20 -20 -20 -20 -20 -20 -20 -20 -20 -20 -20 -20 -20 -20 -20 -20 -20 -20 -20 -20 -20 -20 -20 -20 -20 -20 -20 -20 -20 -20 -20 -20 -19 18 16 0 -20 13 9 -4 -20 -20 -20
-20 -20 -20 -20 -20 -20 -20 -20 -20 -20 -20 -20 -20 -20 -20 -20 -20 -20 -20 -20 -20 -20 -20 -20 -20 -20 -20 -20 -20 -20 -20 -20 -20 -20 -20 11 16 19 20 14 17 14 -20 -20
-20 -20 -20 -20 -20 -20 -20 -20 -20 -20 -20 -20 -20 -20 -20 -20 -20 -20 -20 -20 -20 -20 -20 -20 -20 -20 -20 -20 -20 -20 -20 -20 -20 -17 -12 -20 -20 -20 3 12 -5 14 14 -12
-20 -20 -20 -20 -20 -20 -20 -20 -20 -20 -20 -20 -20 -20 -20 -20 -20 -20 -20 -20 -20 -20 -20 -20 -20 -20 -20 -20 -20 -20 -20 -20 2 -10 2 -20 -18 -20 -20 2 16 -19 -7 8
-20 -20 -20 -20 -20 -20 -20 -20 -20 -20 -20 -20 -20 -20 -20 -20 -20 -20 -20 -20 -20 -20 -20 -20 -20 -20 -20 -20 -20 -20 -20 -20 2 -3 -15 -2 -3 1 -2 2 16 -12 0 -4
-20 -20 -20 -20 -20 -20 -20 -20 -20 -20 -20 -20 -20 -20 -20 -20 -20 -20 -20 -20 -20 -20 -20 -20 -20 -20 -20 -20 2 -20 -20 -20 -1 -6 -20 -20 -14 12 -1 -19 -13 19 6 34
-20 -20 -20 -20 -20 -20 -20 -20 -20 -20 -20 -20 -20 -20 -20 -20 -20 -20 -20 -20 -20 -20 -20 -20 -20 -2 -11 -3 8 -20 0 -20 -1 -14 -20 -20 -4 -10 7 4 1 -1 11 -0
-20 -20 -20 -20 -20 -20 -20 -20 -20 -20 -20 -20 -20 -20 -20 -20 -20 -20 -20 -20 -20 -20 -20 -20 -20 -4 8 -15 4 -20 -20 -20 2 -8 8 -10 -20 -20 -18 -13 -0 -9 -4 -6
-20 -20 -20 -20 -20 -20 -20 -20 -20 -20 -20 -20 -20 -20 -20 -20 -20 -20 -20 -20 -20 -20 -20 -20 -20 -14 -3 15 -12 -20 -18 5 -20 -19 -20 -15 -17 -20 -20 -20 1 7 -4 -6
-20 -20 -20 -20 -20 -20 -20 -20 -20 -20 -20 -20 -20 -20 -20 -20 -20 -20 -20 -20 -20 -20 -20 -20 -1 -20 30 31 -16 -14 -11 20 -2 -18 -9 -1 -20 -2 8 20 1 3 18 -20
-20 -20 -20 -20 -19 -18 -20 -20 -20 -20 -20 -20 -20 -20 -20 -20 -20 -20 -20 -20 -20 -20 -20 3 4 -8 13 -14 -17 7 -20 -20 -19 -9 -20 -20 -20 -20 -19 -15 -8 26 17 15
-20 -14 -20 -20 -12 -20 -20 -20 -20 -20 -20 -20 -20 -20 -20 -20 -20 -20 -20 -20 -20 -20 -5 -15 -20 -20 19 -4 -20 4 -17 -20 -20 -19 -14 -20 -19 -20 -20 -20 -13 7 16 -1
-19 -20 -20 -17 -18 -20 -20 -20 -20 -20 -20 -20 -20 -20 -20 -20 -20 -20 -20 -20 -20 -14 -11 -20 -20 9 34 29 -9 -20 -1 -5 -20 -20 -20 -20 -20 -20 -20 -20 -20 -20 15 14
-20 -20 -20 -20 -20 -20 -20 -20 -20 -20 -20 -20 -20 -20 -20 -20 -20 -20 -20 -18 2 -0 -2 -17 1 25 31 17 2 -20 -20 -20 -20 -20 -20 -20 -20 -20 -20 -20 -20 -20 -20 -20
-20 -20 -20 -20 -20 -20 -20 -20 -20 -20 -20 -20 -20 -20 -20 -20 -20 -20 -20 -13 8 11 28 5 12 41 34 21 12 16 -16 -20 -20 -20 -20 -20 -20 -20 -20 -20 -20 -20 -20 -8
-20 -20 -20 -20 -20 -20 -20 -20 -20 -20 -20 -20 -20 -20 -20 -20 -20 -20 -20 -2 13 11 5 -0 12 30 31 29 17 -8 17 3 -20 -20 -20 -20 -20 -20 -20 -20 -20 11 6 9
Wind_Speed
2 5 5 2 5 2 4 5 10 8 3 5 7 8 9 10 9 15 16 13 7 4 4 11 15 17 19 19 20 19 21 18 14 13 13 12 12 11 11 11 13 13 12 14
3 6 5 5 3 5 5 6 6 8 3 3 6 5 7 9 7 9 11 13 14 8 1 9 14 14 9 14 18 19 19 19 17 13 11 11 11 11 11 11 12 14 14 14
4 0 2 5 3 6 4 6 3 5 5 2 7 3 5 3 2 4 7 6 10 11 9 8 4 3 9 15 18 18 20 20 19 18 12 10 9 8 11 12 12 14 16 15
4 1 3 1 1 6 2 4 6 4 3 4 5 3 2 3 6 7 8 9 9 10 11 9 10 9 7 7 14 16 17 18 17 19 16 19 14 14 13 13 13 13 17 17
2 2 2 3 4 3 3 2 1 4 1 2 3 4 1 2 2 3 8 12 12 10 8 8 9 11 10 9 10 13 16 17 17 19 18 16 16 13 10 12 15 15 14 17
3 3 1 1 1 2 3 1 3 2 1 7 2 5 5 3 0 1 4 9 12 15 14 10 7 7 8 9 8 4 10 15 17 19 21 20 19 16 14 14 13 13 13 13
1 1 2 2 2 3 3 5 3 4 4 6 3 5 8 1 2 3 5 7 9 10 10 12 13 10 9 10 10 7 6 13 17 20 20 21 20 19 18 17 14 14 13 13
3 5 1 5 2 1 3 4 4 6 6 6 2 5 1 1 1 4 6 7 9 10 10 11 13 13 13 13 12 9 11 13 17 20 20 18 19 14 14 16 13 12 12 13
3 3 2 5 4 3 3 1 4 2 1 4 3 3 5 2 6 7 8 6 7 9 11 12 12 12 12 12 13 10 12 12 10 18 16 17 17 18 16 16 14 13 12 11
3 2 1 2 1 7 2 5 3 2 3 5 2 4 2 4 6 9 10 8 6 8 9 10 10 11 13 12 10 9 9 9 6 13 15 15 17 16 15 14 16 17 14 13
1 2 3 5 1 0 5 4 4 0 4 4 5 5 3 6 6 11 12 10 8 8 9 10 10 10 12 10 8 7 8 8 3 4 10 14 16 16 15 16 16 15 14 14
1 2 4 1 2 3 0 2 3 4 1 3 6 8 9 8 10 10 12 9 8 9 10 10 10 9 9 9 8 6 7 8 6 7 5 6 10 11 12 14 15 16 16 16
4 1 4 3 5 4 4 4 2 3 2 10 11 9 3 10 14 12 10 11 12 11 11 10 10 8 8 8 7 6 6 8 7 9 10 10 11 11 13 14 14 16 17 17
3 3 5 8 7 1 5 6 7 7 8 13 14 21 18 17 12 9 10 10 12 12 13 12 12 8 7 7 6 8 8 7 7 7 10 11 12 13 12 12 13 13 14 16
0 4 4 6 7 6 11 14 16 15 17 15 21 20 17 13 8 8 10 11 12 14 14 13 13 11 8 8 8 8 9 9 8 5 5 7 8 10 10 9 9 10 12 12
1 3 3 9 11 12 17 18 21 21 20 18 18 19 10 2 5 8 9 10 13 13 13 12 13 11 8 6 6 6 8 9 9 8 5 4 6 8 8 6 5 5 4 5
3 3 5 14 5 8 11 15 14 9 9 9 11 8 3 10 10 9 11 14 12 12 11 12 12 10 4 5 4 5 7 7 8 7 6 6 5 4 4 4 4 2 1 1
4 3 3 8 4 10 3 2 3 5 11 8 10 9 8 8 8 11 12 10 9 9 12 12 11 5 1 3 3 4 4 3 4 6 6 6 6 7 6 5 4 4 4 7
6 3 3 5 7 7 8 5 4 3 5 3 4 5 5 5 8 9 5 6 8 11 12 8 5 3 1 3 4 2 3 3 4 5 5 6 4 4 4 6 3 4 4 6
5 1 5 3 6 8 2 4 2 2 7 5 6 8 8 7 8 10 7 11 12 11 7 7 3 1 2 1 1 3 3 4 4 4 4 3 4 4 4 3 6 6 5 6
4 3 6 6 6 6 1 3 3 5 4 3 5 8 7 7 8 12 13 13 11 8 7 3 1 1 2 1 0 2 2 4 3 3 5 6 6 5 5 4 2 5 7 5
6 4 4 2 5 5 5 4 5 4 3 5 6 9 9 10 12 12 12 12 11 6 4 6 5 3 5 4 2 1 3 4 3 4 6 6 6 5 5 5 5 4 0 2
5 5 2 6 2 5 5 12 11 5 11 12 11 10 9 12 13 12 12 13 10 4 7 6 6 5 3 8 5 2 2 4 3 4 4 4 5 5 6 7 8 6 3 3
4 4 4 2 4 11 12 12 13 10 11 10 8 9 9 11 10 12 12 11 7 6 10 8 7 2 5 5 4 2 1 2 2 3 5 5 4 4 5 5 5 5 5 5
3 5 4 9 12 13 10 6 8 8 6 7 8 7 8 8 9 8 10 8 7 6 8 7 8 4 5 6 5 4 2 2 1 1 2 3 3 4 4 4 4 4 5 6
8 10 9 13 12 9 13 11 8 9 10 7 8 9 7 7 7 7 7 5 5 5 7 7 8 7 5 7 6 3 2 3 3 3 1 2 1 1 2 1 3 7 8 7
Wind_Direction
51 233 219 202 227 301 289 281 295 281 253 298 14 353 10 10 27 37 31 15 351 285 232 176 174 191 191 187 187 197 181 187 183 194 199 203 208 212 214 216 216 218 212 209
158 247 240 260 236 230 234 275 270 291 20 257 10 359 340 19 30 33 27 30 27 27 158 174 186 212 205 195 199 193 197 185 186 189 198 207 207 207 215 216 214 214 217 215
224 4 339 232 215 217 206 224 216 276 332 189 317 173 11 355 356 42 53 38 32 35 42 35 19 280 244 206 206 196 198 196 192 189 188 188 198 213 201 212 216 211 210 213
239 289 273 305 231 201 264 235 256 254 229 323 343 320 218 346 4 12 12 37 37 17 15 16 7 9 7 337 230 217 206 200 196 192 190 193 194 200 205 199 205 210 208 205
62 227 165 60 46 212 20 25 207 305 248 288 171 254 133 232 201 13 351 356 8 17 20 16 2 356 4 12 359 236 205 203 202 199 202 196 205 201 196 201 197 200 203 210
289 336 276 344 75 38 297 209 76 63 304 250 19 271 267 221 259 274 330 344 344 341 344 0 17 6 359 352 346 8 244 221 206 205 207 205 206 205 202 199 196 200 201 202
242 62 327 21 139 24 34 7 328 249 237 282 16 252 273 292 257 287 311 324 322 326 328 335 346 353 351 349 344 328 300 249 225 214 210 210 212 209 207 199 205 199 203 204
251 172 11 358 36 52 49 337 303 282 268 294 120 246 80 314 246 288 293 308 322 342 346 344 348 350 348 347 346 329 311 290 232 221 216 213 214 215 215 207 204 208 207 205
173 167 319 29 20 321 111 219 9 274 109 260 271 254 249 201 264 265 283 311 328 333 336 337 341 346 348 347 344 326 325 319 237 224 216 217 216 218 218 216 215 212 212 209
139 204 207 163 227 64 12 134 207 149 265 264 247 277 252 347 333 323 301 306 305 328 332 328 328 335 340 348 344 332 329 344 292 233 221 219 221 219 219 216 214 217 215 209
119 274 152 206 109 46 161 162 73 338 262 274 277 252 234 282 308 306 305 314 308 314 321 319 311 317 327 329 344 332 326 317 333 338 250 227 226 226 220 220 215 217 217 212
79 232 255 291 338 285 244 130 208 286 189 259 290 272 283 278 309 302 293 301 318 317 311 307 302 307 319 315 331 332 328 325 320 306 267 274 253 239 224 221 221 214 213 209
177 213 255 198 160 143 242 191 140 109 252 257 282 282 206 292 299 302 300 322 323 321 316 316 311 307 304 309 322 318 320 324 324 308 294 276 261 245 233 225 218 217 215 214
118 146 269 283 302 356 237 251 222 243 267 285 265 286 292 296 316 343 331 322 317 318 324 328 326 321 294 295 313 310 315 321 341 334 306 286 274 264 249 236 212 214 206 214
238 254 219 255 257 237 265 265 270 241 256 270 288 292 281 293 316 329 319 314 313 313 320 322 320 319 309 304 306 321 321 326 345 2 348 7 349 291 264 224 206 196 192 201
37 272 227 270 275 266 265 267 262 267 267 279 268 272 294 327 302 312 323 322 310 309 317 316 318 318 299 310 309 314 319 335 346 351 350 22 22 23 24 65 88 117 145 173
251 258 252 281 316 282 261 255 269 250 248 269 272 314 341 313 318 321 314 308 301 306 315 322 327 317 299 304 341 301 320 331 341 346 348 356 17 25 20 13 29 30 59 21
211 190 228 286 261 257 37 225 250 253 277 262 274 296 290 292 306 299 297 293 293 303 310 317 329 312 73 323 349 286 327 337 9 7 350 0 8 11 355 330 305 278 246 233
227 189 207 260 262 310 270 194 215 227 283 263 264 290 307 339 307 310 308 308 298 307 308 311 293 279 162 34 320 29 9 41 56 33 5 17 15 350 356 357 324 277 237 237
122 84 252 179 266 274 68 141 138 164 264 195 247 307 324 333 314 319 315 311 306 304 294 307 247 246 86 51 313 125 84 72 63 47 44 55 54 61 48 351 319 293 266 257
208 183 234 223 244 271 287 150 160 243 31 258 263 289 292 281 288 301 302 300 307 296 290 230 146 321 56 322 135 70 68 57 22 50 56 48 47 50 37 49 356 281 249 230
231 213 215 186 230 259 161 152 239 340 290 272 288 287 277 287 297 302 299 301 309 293 181 171 138 65 27 291 252 46 353 341 3 22 38 43 40 41 44 53 56 41 215 127
230 230 263 227 275 322 225 259 269 288 288 289 292 301 297 298 307 315 307 304 301 232 184 171 146 116 323 277 262 231 324 302 8 24 48 39 39 28 33 27 44 60 65 54
210 185 237 261 241 288 291 273 272 266 260 280 280 294 303 299 317 321 318 314 285 197 181 172 162 148 261 267 291 270 266 298 22 36 9 5 27 30 39 41 39 49 68 68
334 165 251 265 281 296 281 293 283 275 269 282 299 301 298 301 319 331 321 315 291 231 190 177 157 158 244 266 247 255 265 295 335 5 11 11 41 58 69 61 24 45 50 8
237 260 264 278 289 293 275 300 305 298 306 316 315 314 312 297 321 337 326 315 307 233 180 183 178 177 204 249 234 257 267 305 315 298 302 23 355 57 69 45 125 75 60 37